RH
11 11 11 11 11 10 10 10 10 9 9 9 9 9 10 9 9 9 9 8 7 6 5 4 4 4 3 4 3 4 4 4 5 5 5 5 5 6 6 6 8 8 9 9 12 16 20 25 26 26 33 37 32 28 27 29 30 34 37 36 34 36 42 49 56 58 60 65 67 69 70 69 70 70 71 72 71 71 69 70 70 67 64 62 55 50 49 50
11 11 11 10 10 10 10 10 9 9 9 9 8 8 9 9 9 9 9 8 7 6 5 4 3 4 3 4 4 4 6 7 7 7 6 6 5 5 6 6 7 7 8 9 13 16 20 22 20 22 31 31 28 26 26 28 30 31 32 33 33 34 39 46 51 54 58 63 64 68 70 70 71 71 69 70 71 71 72 74 72 70 68 63 56 54 54 52
11 12 12 11 10 10 10 10 9 9 9 9 8 7 8 9 9 9 9 8 8 7 5 3 3 3 4 4 5 7 8 9 9 9 8 7 6 6 5 5 6 6 8 11 13 16 18 18 17 21 27 27 26 25 24 26 29 29 29 31 32 33 37 42 47 52 55 58 61 66 69 69 70 70 68 68 70 71 74 76 75 73 71 64 58 57 57 54
10 11 11 11 11 10 9 9 9 10 9 9 8 7 8 8 9 9 9 8 8 7 5 3 3 3 4 4 7 8 9 11 10 9 8 7 6 6 5 5 6 7 10 13 14 16 18 17 17 20 23 25 24 22 23 25 27 28 28 30 30 30 34 39 43 49 52 54 57 61 65 67 69 70 68 67 70 73 74 75 75 75 71 67 62 59 58 57
10 10 11 11 11 11 10 9 9 10 9 9 8 8 7 7 9 9 9 8 8 7 4 3 3 3 3 5 8 8 10 14 12 9 9 8 7 5 5 5 6 7 10 12 14 17 17 17 18 19 21 23 24 21 22 24 26 27 27 27 27 29 31 35 39 46 50 51 52 55 60 66 69 70 69 68 70 73 73 73 73 72 71 71 68 65 62 59
10 10 10 11 11 11 11 10 9 9 9 9 8 8 7 7 7 8 8 8 8 6 4 3 3 3 4 7 9 9 13 17 12 9 10 9 9 6 5 6 6 9 10 11 15 17 17 17 18 20 22 23 23 21 20 23 24 26 27 26 27 29 31 33 38 45 49 49 50 52 56 62 66 67 69 69 69 71 72 72 71 69 70 70 70 68 65 62
10 10 10 10 11 11 10 10 9 9 9 9 9 8 7 7 7 8 8 8 8 6 4 4 4 5 6 8 10 10 14 15 13 12 11 9 10 8 6 6 8 10 10 11 15 16 17 18 18 20 23 22 21 19 19 21 23 25 26 26 27 30 33 34 38 45 49 49 50 51 52 56 60 62 66 67 67 69 70 70 69 67 67 68 69 69 65 62
10 10 10 10 10 10 9 9 9 8 8 8 8 8 7 7 6 7 7 8 8 6 5 5 6 7 7 9 10 12 14 15 12 12 12 10 10 9 7 7 9 11 10 11 13 14 15 17 18 19 21 21 19 18 19 21 22 25 26 28 31 33 36 38 39 43 48 51 51 51 51 52 57 59 61 61 60 62 65 65 66 65 66 67 69 69 66 64
11 10 9 9 9 9 9 9 8 8 8 7 8 8 7 6 6 6 7 8 7 6 6 7 7 8 9 9 11 14 16 14 11 11 11 11 10 10 9 7 8 10 10 10 10 11 13 15 17 19 19 18 17 17 17 20 21 24 27 28 32 35 39 42 42 43 46 50 50 49 49 51 55 55 56 55 54 56 58 59 60 62 65 67 69 69 68 67
11 11 9 9 9 9 8 8 8 8 7 7 8 7 7 6 6 6 7 7 8 7 6 7 9 9 10 10 12 15 15 13 12 10 10 10 10 10 10 8 8 10 9 9 9 10 12 15 17 17 17 17 16 15 16 18 21 26 30 29 32 36 40 42 43 44 44 48 50 48 46 48 51 52 53 53 51 52 52 54 56 57 60 63 68 70 69 69
10 10 10 9 8 8 8 8 8 8 7 7 7 7 7 6 5 6 7 8 8 7 6 8 9 10 10 11 13 14 12 11 11 10 9 9 10 10 9 9 8 10 9 9 9 9 11 14 16 16 17 17 15 15 16 19 23 28 31 30 33 36 37 40 41 43 42 45 47 47 44 45 49 50 49 50 49 50 50 51 53 54 56 58 64 68 69 70
9 10 10 9 9 8 8 8 8 8 7 6 6 7 7 6 5 6 7 8 8 7 7 8 9 9 10 11 13 12 10 10 10 10 9 8 9 10 9 9 9 10 9 9 8 10 11 14 15 15 16 16 15 15 17 21 23 25 30 34 37 35 36 39 39 41 41 44 46 47 48 47 48 47 45 47 46 47 48 48 50 51 53 56 59 63 65 67
8 9 10 9 9 9 8 8 8 8 7 7 6 6 7 6 5 5 7 8 8 8 7 8 9 9 11 13 13 11 10 10 10 9 9 8 9 9 8 8 9 10 10 8 9 11 11 13 15 15 16 16 15 14 16 19 20 26 33 35 35 35 39 38 36 38 37 40 43 45 49 47 45 45 45 46 46 47 47 47 48 49 51 53 56 59 61 62
9 8 9 9 10 9 9 9 8 8 7 6 6 6 7 7 5 5 6 7 7 7 7 8 9 10 12 14 12 11 11 11 10 10 9 8 9 8 7 6 7 9 9 9 10 11 12 13 15 15 16 15 15 14 14 16 18 24 28 29 30 32 37 36 32 34 33 36 37 38 46 45 43 45 48 49 48 47 46 47 48 47 49 51 54 56 58 60
11 10 9 9 9 10 9 9 9 8 7 6 6 7 8 9 8 6 6 7 7 7 7 8 10 12 14 13 11 11 11 10 10 10 9 9 8 8 6 5 6 7 8 9 11 11 12 14 15 16 17 15 14 14 13 14 17 20 21 26 30 28 31 33 30 30 31 34 33 34 42 43 40 43 49 51 49 47 44 48 50 48 50 50 52 55 57 60
14 12 11 9 9 9 10 10 9 9 7 6 6 7 8 9 9 9 8 8 8 9 8 9 10 12 14 14 12 11 11 10 10 11 10 9 9 8 6 5 7 7 9 10 11 12 12 13 14 15 16 15 14 14 14 14 15 18 19 21 25 24 25 29 31 29 30 33 32 33 37 39 39 41 46 49 48 46 43 45 48 47 50 51 51 53 55 59
16 14 13 11 10 9 10 10 10 9 8 6 6 7 8 8 9 11 10 10 10 11 10 10 11 12 14 14 13 12 11 10 10 10 10 10 11 9 7 7 8 9 10 10 11 12 12 13 14 16 16 16 15 14 14 15 16 19 19 18 20 21 20 23 27 30 31 31 32 33 33 34 39 39 42 47 45 44 42 44 46 46 48 52 53 54 54 56
19 16 14 13 11 10 10 10 10 9 8 7 7 8 8 8 9 11 12 11 12 14 12 12 13 13 14 13 12 12 11 11 10 10 10 10 11 10 8 9 10 10 10 11 11 11 12 13 14 16 16 16 15 15 14 15 17 18 17 17 19 20 20 20 22 26 30 30 30 32 34 35 38 37 38 42 43 43 42 44 46 45 47 50 53 55 55 55
20 18 16 14 13 12 11 10 10 9 8 7 7 8 8 8 9 10 12 12 12 14 14 15 14 14 15 13 12 12 12 10 9 10 10 10 10 10 9 10 10 10 10 11 11 11 12 13 14 15 16 16 16 16 14 13 14 15 15 16 18 18 21 20 19 22 25 27 29 30 34 36 37 39 38 37 39 41 42 42 43 45 46 49 52 55 56 57
21 20 18 16 14 13 12 11 10 8 8 7 7 8 9 9 10 11 12 12 12 12 13 14 13 13 15 14 13 12 12 11 10 11 11 10 11 10 10 9 9 10 11 11 11 11 12 13 14 14 16 17 16 15 15 13 13 14 14 16 17 18 20 20 19 22 23 25 28 27 29 32 34 39 38 34 35 37 39 40 41 44 46 48 51 54 56 58
20 20 20 18 15 14 14 12 10 8 8 7 7 9 10 9 9 11 11 10 10 10 12 13 13 13 14 13 13 12 11 11 11 11 11 11 11 11 11 10 9 10 10 10 11 10 11 12 13 13 15 15 14 15 14 13 12 14 15 16 17 18 21 22 21 23 26 25 28 28 25 28 32 37 36 31 31 32 34 38 40 43 45 47 51 52 55 58
20 19 20 20 17 14 14 14 11 8 8 7 7 9 9 8 8 9 9 8 9 10 10 12 13 13 14 13 13 12 11 11 11 11 12 11 11 12 12 11 10 10 10 10 10 10 11 11 12 13 13 12 12 13 12 12 13 14 16 16 18 19 21 25 25 25 27 26 28 28 25 25 29 32 30 28 30 31 34 37 40 42 45 47 49 51 53 55
20 20 20 20 19 15 14 15 12 9 8 8 8 9 9 9 8 8 9 9 8 9 9 10 12 13 13 14 13 12 12 12 12 12 11 11 11 13 13 11 11 11 10 10 10 11 11 11 11 12 11 11 11 11 11 12 13 15 16 16 18 19 19 25 30 29 28 28 28 28 24 23 25 27 28 29 32 35 39 42 43 44 46 47 49 51 52 52
20 20 20 21 20 17 15 15 14 11 9 8 8 9 9 9 8 9 10 9 8 9 9 10 11 13 14 14 14 12 13 14 13 13 11 11 12 11 12 12 11 11 10 10 10 11 13 12 12 11 11 11 12 12 13 13 15 16 17 16 17 20 19 20 26 29 29 30 30 28 23 23 27 29 32 34 34 37 41 44 44 46 47 48 51 53 54 52
19 20 20 21 21 20 17 16 15 15 12 10 9 10 10 10 9 10 10 10 9 9 9 10 10 12 13 14 14 14 14 14 13 13 11 11 12 11 12 12 12 12 11 11 11 12 14 14 12 12 12 13 14 15 15 15 17 19 19 17 16 18 19 18 21 25 26 31 34 30 25 29 32 33 35 34 33 36 40 42 43 45 47 49 51 51 52 50
18 20 20 22 23 22 19 18 17 17 15 13 12 12 11 11 10 11 11 11 12 11 10 11 11 12 13 14 15 14 14 14 13 13 12 11 12 12 13 13 12 14 13 12 13 13 14 14 13 14 14 15 16 17 17 16 18 21 21 18 17 17 18 18 21 23 24 29 33 28 24 29 32 34 36 33 31 36 41 43 44 47 48 48 49 49 48 46
19 19 19 21 24 23 22 20 18 18 17 15 14 13 13 12 11 13 14 14 15 13 11 12 13 13 13 15 16 15 15 15 13 12 12 12 13 14 15 14 14 14 14 14 15 14 14 14 14 15 15 17 17 17 18 17 18 22 21 19 19 19 18 19 20 23 25 27 31 30 28 28 29 34 37 34 34 39 42 45 47 49 49 48 49 48 46 46
23 22 20 21 23 23 23 22 19 18 18 17 15 14 13 12 12 14 17 18 17 14 12 13 14 14 15 17 17 16 17 16 14 14 14 14 15 15 15 15 15 15 14 15 16 15 15 15 15 15 16 18 19 19 19 18 19 21 21 20 20 20 18 19 21 24 27 26 32 38 36 30 31 38 40 36 39 44 45 47 48 49 50 49 48 46 46 48
23 23 22 23 23 23 23 23 22 20 17 17 16 15 14 13 13 15 18 20 18 15 14 14 15 16 17 18 17 17 17 17 16 16 15 16 16 15 16 16 15 16 15 15 16 16 16 15 15 15 17 19 19 20 20 19 21 21 21 21 22 23 22 22 25 28 30 29 31 38 38 32 34 44 47 43 44 49 49 48 47 48 50 48 46 45 47 49
22 21 21 23 24 24 24 24 23 20 17 17 16 16 15 14 15 16 17 19 18 16 15 16 17 18 18 19 18 18 18 17 17 17 16 16 16 15 16 16 15 16 16 15 15 16 15 15 15 16 18 20 20 20 20 20 21 21 22 23 25 27 27 27 30 32 34 36 35 37 37 32 35 45 49 47 47 49 51 51 48 47 47 46 45 45 46 48
23 22 22 21 23 24 25 25 25 22 18 16 16 16 16 15 15 16 17 17 18 17 17 17 18 18 18 19 19 19 19 17 17 17 17 17 17 16 16 16 16 16 16 16 15 15 15 15 16 17 18 19 19 20 20 20 21 21 23 24 26 31 32 33 35 35 36 40 39 36 34 33 39 46 47 47 46 46 50 52 49 46 46 45 45 46 47 49
24 24 23 23 22 22 24 26 26 24 21 18 16 16 16 15 14 14 16 17 19 19 17 18 18 18 18 18 19 19 20 19 18 18 18 18 18 17 16 17 17 16 18 18 17 17 17 17 17 18 19 19 19 20 20 21 22 23 24 23 25 29 32 34 38 37 38 40 38 36 36 37 40 42 43 45 45 43 46 48 46 45 45 45 45 47 49 49
24 24 24 24 23 21 22 25 25 25 23 21 19 17 16 16 14 13 14 17 19 19 18 19 19 18 18 18 19 19 19 20 19 19 19 18 19 18 17 18 17 17 20 20 19 21 21 20 19 19 20 20 19 20 21 22 23 24 24 24 25 27 29 33 35 34 35 37 38 39 38 37 38 40 42 42 42 42 44 44 44 43 43 45 46 47 49 50
23 24 24 25 24 21 21 24 26 24 23 23 21 19 19 18 16 14 14 16 18 18 19 20 19 19 19 19 19 19 19 20 20 20 20 18 18 19 18 18 17 18 20 20 21 23 24 23 21 20 21 22 22 22 22 22 23 24 23 22 24 25 28 32 32 30 29 32 39 42 38 35 40 43 39 37 38 40 42 42 42 44 44 45 47 47 48 50
21 24 25 25 24 22 21 23 26 25 24 24 23 21 21 19 17 16 16 16 17 18 19 19 20 21 21 21 20 19 20 22 21 20 20 19 19 19 18 18 18 19 20 22 23 23 23 25 24 22 23 23 23 23 22 22 22 23 22 22 24 25 26 30 31 30 28 28 36 40 35 33 38 38 35 35 37 38 40 42 42 44 45 45 47 48 48 49
18 21 25 25 24 24 23 23 25 25 24 24 24 23 21 19 19 19 18 17 17 18 18 20 20 21 22 22 21 21 21 22 21 20 20 20 19 19 19 19 19 20 21 22 24 24 24 25 24 23 23 22 23 23 22 22 22 23 23 24 25 25 26 29 32 33 32 31 36 37 34 34 38 37 36 36 37 38 40 41 41 43 44 44 45 47 48 49
17 19 23 23 23 25 25 24 25 25 24 24 25 25 22 20 20 19 18 18 18 18 19 21 21 21 23 23 23 23 22 22 21 21 21 20 20 20 20 20 20 20 21 22 23 24 24 24 24 23 23 22 22 22 22 22 22 23 25 24 24 26 27 29 33 35 34 34 35 35 34 37 41 42 41 38 38 40 40 38 39 42 44 44 43 45 48 49
18 18 20 21 22 24 27 26 25 25 24 24 27 28 24 22 20 18 18 18 19 19 19 20 21 21 23 25 25 25 23 23 22 21 21 21 20 20 19 20 20 21 21 21 22 23 23 23 24 22 22 22 21 22 23 22 22 23 24 24 24 27 30 32 34 35 35 35 35 35 36 38 40 42 42 42 41 43 42 38 39 42 43 43 41 43 47 48
18 19 20 20 21 23 26 27 26 24 23 24 27 28 26 24 22 19 19 19 19 20 19 20 21 21 23 25 26 25 24 24 22 21 22 21 21 21 20 20 21 20 20 21 22 23 22 23 24 23 22 22 22 22 23 23 23 23 24 25 24 26 30 31 32 32 33 33 34 35 36 37 37 36 38 42 43 45 45 40 39 41 42 44 43 44 48 48
18 18 21 22 21 22 25 26 26 24 23 25 27 27 26 25 24 22 21 20 20 20 20 20 21 22 23 24 26 26 25 25 23 22 22 21 21 22 21 20 21 21 21 21 21 22 22 23 24 24 23 22 23 24 23 24 26 25 27 28 28 28 29 29 30 32 32 33 34 36 37 37 37 36 38 41 42 44 45 40 39 40 43 45 44 44 49 49
17 19 22 23 23 23 24 26 27 24 23 24 25 25 26 27 26 25 24 22 21 21 20 20 20 21 22 24 26 27 26 26 24 23 23 22 21 22 21 20 21 21 21 21 21 21 22 22 23 24 24 24 25 24 23 24 26 26 28 29 29 30 30 31 34 33 32 32 33 36 37 38 37 36 36 37 38 40 40 39 39 41 43 46 44 44 49 51
18 20 23 23 24 25 26 27 27 25 25 25 24 25 27 29 28 28 27 24 22 21 21 21 20 19 20 22 24 25 26 26 25 24 23 22 22 22 21 21 21 21 21 22 22 21 22 23 23 23 24 24 24 23 23 23 24 24 26 27 28 29 29 31 33 33 33 34 33 35 38 40 40 37 36 37 37 38 38 38 39 40 43 46 45 45 49 51
19 20 22 22 23 24 27 29 27 26 27 26 25 25 26 29 30 30 30 28 25 22 21 21 21 20 20 20 21 23 25 26 25 25 24 23 23 23 22 22 23 22 22 22 22 22 22 23 23 23 24 23 23 23 22 23 23 24 25 25 26 28 27 28 29 29 30 33 37 39 41 42 41 38 38 38 39 39 39 39 39 39 43 46 46 46 48 49
21 20 21 22 23 25 28 30 29 29 28 25 26 27 27 29 31 34 35 32 29 27 23 21 22 22 21 20 20 21 23 25 26 25 24 24 25 24 23 24 24 23 22 22 23 23 22 23 23 24 25 25 24 24 23 23 23 24 26 26 25 26 26 27 29 28 30 33 35 36 40 44 41 37 37 38 38 38 39 39 39 39 44 46 46 47 48 48
23 23 22 22 23 25 28 30 30 30 28 25 27 30 30 31 32 34 36 35 33 31 28 25 23 22 22 21 20 20 20 22 25 25 24 25 26 26 25 26 25 24 23 23 23 23 22 24 25 24 25 26 25 25 26 26 24 24 25 25 25 26 27 28 30 30 33 38 35 33 38 42 40 35 35 35 35 37 38 38 38 40 45 47 46 46 48 48
23 25 25 23 23 24 26 28 28 30 30 28 31 31 31 33 33 33 35 36 35 34 32 30 26 24 23 23 23 23 21 21 22 24 25 25 26 27 26 27 26 25 27 27 25 23 24 26 26 24 24 25 26 27 26 25 25 25 25 25 26 25 26 28 30 31 35 37 36 35 35 35 34 35 37 38 36 36 36 36 37 40 44 46 45 44 46 48
23 25 25 24 26 26 27 28 27 29 30 30 33 33 31 33 34 34 34 35 36 36 34 33 31 28 26 24 25 26 24 23 22 22 24 26 27 27 26 26 26 26 30 31 27 25 26 26 25 24 24 24 25 27 26 25 25 25 25 26 26 25 26 27 28 31 33 32 34 37 35 31 32 34 36 39 38 36 36 36 36 39 42 43 44 44 44 46
23 25 25 27 30 29 30 32 29 29 29 30 32 32 31 33 35 36 35 34 35 37 37 37 36 33 30 27 26 26 26 26 24 24 25 26 27 28 28 27 25 25 28 29 27 26 27 26 24 24 24 24 24 25 25 25 25 25 25 25 26 26 26 27 28 30 31 31 32 33 32 31 32 32 34 37 38 37 38 37 36 38 41 42 43 43 42 42
24 25 25 26 27 26 28 30 30 31 31 31 32 32 31 34 35 35 35 35 35 36 38 41 40 35 33 30 28 30 30 28 29 29 28 27 26 27 28 29 28 27 27 27 28 28 27 27 27 26 25 25 25 24 24 25 25 25 25 25 26 26 27 28 28 27 27 30 31 31 31 32 32 33 35 36 37 37 37 37 37 38 41 42 41 40 40 41
27 27 26 26 25 25 26 27 27 31 34 34 36 35 32 33 34 34 34 36 37 37 36 39 40 37 35 33 31 32 32 30 32 32 29 27 27 27 29 31 30 30 30 30 30 29 28 30 30 27 26 26 26 25 25 25 25 26 26 26 26 26 27 28 28 27 27 29 31 32 32 32 32 33 35 35 36 38 38 38 38 38 41 42 39 39 40 40
29 28 27 28 27 25 26 26 25 27 33 38 39 37 34 34 35 35 35 35 36 37 36 36 39 39 39 38 36 33 32 31 31 31 28 28 28 27 29 30 30 30 31 34 34 31 30 31 31 29 28 27 26 26 26 26 26 26 26 27 26 26 27 28 28 28 28 28 31 34 32 33 35 35 34 35 36 37 38 38 38 38 40 39 37 37 37 38
32 31 30 30 29 27 26 26 24 27 35 40 37 34 34 35 35 36 38 37 35 35 37 37 38 39 40 43 41 37 35 34 32 31 31 30 28 26 26 28 28 30 32 34 35 34 33 32 31 31 30 28 28 28 26 26 27 27 26 26 26 26 27 27 27 28 28 27 31 35 33 33 35 33 32 35 35 35 37 38 38 39 39 38 36 36 37 39